Location: Blanot
(47.1713°N, 4.2340°E)
Time: 10:56:04
(UTC+00:00)

NOSS 2-1 (D) - Pass Details

Date: 14 July 2020
Orbit: 447 x 1756 km, 63.3° (Epoch: 01 August)

Event Time Altitude Azimuth Distance (km) Brightness Sun altitude
Rises 00:29:42 0° 320° (NW) 3,007 7.7 -20.6°
Reaches altitude 10° 00:31:43 10° 321° (NW) 2,229 6.9 -20.5°
Maximum altitude 00:36:51 86° 50° (NE) 918 4.3 -20.4°
Enters shadow 00:43:40 12° 140° (SE) 2,942 6.7 -20.1°
